San Martin, Argentina

6:54 AM ART on August 31, 2015 (GMT -0300)
El Plumerillo | | Change Station
CLOSE
Current Station
Airport
Location: Mendoza,
Elevation: 2310 ft
Nearby Weather Stations

Elev 2310 ft 32.83 °S, 68.79 °W | Updated 54 minutes ago

Clear
Clear
63 °F
Feels Like 63 °F
N
7
Wind Variable Wind from South

Today
High -- | Low -- °F
--% Chance of Precip.
Yesterday
High -- | Low -- °F
Precip. -- in
7:52 AM 7:15 PM
Waning Gibbous, 96% visible
Pressure 30.01 in
Visibility -9999.0 miles
Clouds
Dew Point 46 °F
Humidity 55%
Rainfall 0.00 in
Snow Depth Not available.
UV Not available.
Pollen Not available.
Air Quality Not available.
Flu Activity Not available.
METAR SAME 310900Z 18006KT CAVOK 17/08 Q1016
Pressure 30.01 in
Visibility -9999.0 miles
Clouds
Dew Point 46 °F
Humidity 55%
Rainfall 0.00 in
Snow Depth Not available.
UV Not available.
Pollen Not available.
Air Quality Not available.
Flu Activity Not available.
METAR SAME 310900Z 18006KT CAVOK 17/08 Q1016

10-Day Weather Forecast

×

Almanac

Astronomy

Aug. 31, 2015 Rise Set
Actual Time
Civil Twilight
Nautical Twilight
Astronomical Twilight
Moon
Length of Visible Light
Length of Day
Tomorrow will be .
, % of the Moon is Illuminated

Today's Extremes

Country Highs Country Lows

Community

WunderPhotos

Upload Photos

1,851,229 photos uploaded!

WunderBlogs® & News

Nearby

Air Quality

  Air Quality AQ Index Pollutant
Not available.

Snow Depth

Station Depth Elevation

Earthquake Activity

City Distance Mag. Time & Date
Minimum magnitude displayed is 2.5.

Coastal Water Temperatures

Place Temperature

Stations

Nearby Weather Stations

Station Location Temp. Windchill Dew Point Humidity Wind Precip. Elev Updated Type